Tracking 19794 objects as of 22-Jul-2019
HD Live streaming from Space Station
objects crossing your sky now

RUBIN 9.1/RUBIN 9.2/PSLV

Track RUBIN 9.1/RUBIN 9.2/PSLV now!
10-day predictions
RUBIN 9.1/RUBIN 9.2/PSLV is classified as:


NORAD ID: 35936
Int'l Code: 2009-051F
Perigee: 719.8 km
Apogee: 799.3 km
Inclination: 98.1 °
Period: 99.9 minutes
Semi major axis: 7130 km
RCS: 5.72 m2 (large)
Launch date: September 23, 2009
Source: Germany (GER)
Launch site: SRIHARIKOTA (SRI)

RUBIN 9.1 & RUBIN 9.2 are demonstration payloads for the Automatic Identification System, a communications network used to track and identify shipping vessels."
aabbcc
Your satellite tracking list
Your tracking list is empty




NASA's NSSDC Master Catalog

Two Line Element Set (TLE):
1 35936U 09051F   19203.71946925 -.00000025  00000-0  48087-5 0  9999
2 35936  98.0515 185.1855 0055753 141.3813 219.1385 14.41831520517084
Source of the keplerian elements: AFSPC